SL-12 R/B(AUX MOTOR), 29680

Orbit data source: Space-Track

SL-12 R/B(AUX MOTOR), 29680 is space debris in HEO originally from a launch on Mon, 25 Dec 2006 UTC launched from the Tyuratam Missile And Space Complex (TTMTR). Debris objects in space refer to the collection of defunct objects orbiting the Earth. Examples of debris include non-operational satellites, rocket bodies, and fragments generated from explosions, collisions, or faulty payload assembly.

Loading next visibility...
Identifier
29680, 2006-062G
Orbit
HEO
Country
Flag of CISCIS
Related business
Manufacturer
RKKE
Mission
Spacecraft
Bus & Motor
SOZ, Unknown motor
Mass
56 kg wet, 56 kg dry
Launch date (UTC)
2006-12-25 (19 years ago)
Launch vehicle
Unknown
Launch site
Tyuratam Missile And Space Complex (TTMTR)
Object type
Payload
Rocket body
Debris
Shape & HBR
Cyl, 0.6 m
Radar Cross Section
0.660 m², Medium (>0.1 m² and < 1m²)

Expand to show TLE details & history
Last TLE update: 1 day ago

TLE from 1 day ago
0 SL-12 R/B(AUX MOTOR)
1 29680U 06062G   25348.59145615  .00000161  00000-0  61047-3 0  9996
2 29680  65.1465 101.7296 5706350 220.0631  79.6658  4.25888207192579
Epoch: 2025-12-14T14:11Z
TLE epoch observation values (Epoch: 2025-12-14T14:11:41.811Z)
Latitude
-0.00001°
Longitude
165.30631°
Altitude
12,894.239 km
Speed
4.071 km/s
True Right ascension
06h 46m 55s
True Declination
0° 00' 00"
Sunlit
Object was in daylight at epoch
Visualization orbit readout
Latitude
Unknown
Longitude
Unknown
Altitude
Unknown
Speed
Unknown
Apparent Right ascension
Unknown
Apparent Declination
Unknown
Sunlit
N/A
Visualization observer readout
Local Sidereal Time
23:58:30
Azimuth
Unknown
Elevation
Unknown
Doppler factor
Unknown
Orbital elements
Apogee altitude
18,871.137 km
Perigee altitude
524.265 km
Semi-major axis
16,075.838 km
Eccentricity
0.57064
Inclination
65.1465°
RAAN
101.7296°
Arg. of periapsis
220.0631°
True anomaly
140.0075°
Mean anomaly
79.6658°
Eccentric anomaly
110.32509°
Mean motion
1.06484 °/min
Orbital period
338.08 mins
BSTAR
0.00061047
Loading maneuver chart data...
Computing Atmospheric mass density...
Loading historical data...
Loading historical data...
Loading historical data...
Loading historical data...
Loading historical data...
Loading historical data...
Loading historical data...

Documentation

Showing up to 5 results
|